Weather History for Louisville Bowman, KY

Change the Weather History Date:

Tuesday, November 27, 2012

  Actual Average Record
Temperature  
Mean Temperature 38 °F 43 °F  
Max Temperature 45 °F 51 °F 77 °F (1990)
Min Temperature 30 °F 34 °F 17 °F (1955)
Degree Days  
Heating Degree Days 27 22  
Month to date heating degree days 546 458  
Since 1 July heating degree days 863 734  
Cooling Degree Days 0 0  
Month to date cooling degree days 0 0  
Year to date cooling degree days 1851 1442  
Moisture  
Dew Point 31 °F    
Average Humidity 75    
Maximum Humidity 96    
Minimum Humidity 53    
Precipitation  
Precipitation 0.03 in 0.12 in 1.40 in (1983)
Month to date precipitation 0.88 3.23  
Year to date precipitation 38.54 41.15  
Sea Level Pressure  
Sea Level Pressure 30.31 in    
Wind  
Wind Speed 5 mph (North)    
Max Wind Speed 12 mph    
Max Gust Speed 17 mph    
Visibility 9 miles    
Events Rain    
T = Trace of Precipitation, MM = Missing Value Source: NWS Daily Summary

Daily Weather History Graph

Daily Weather History Graph

Search for Another Location

Airport:

Trip Planner

Search our weather history database for the weather conditions in past years. The results will help you decide how hot, cold, wet, or windy it might be!

Date:

Astronomy

Nov. 27, 2012 Rise Set
Actual Time 7:37 AM EST 5:23 PM EST
Civil Twilight 7:08 AM EST 5:52 PM EST
Nautical Twilight 6:35 AM EST 6:25 PM EST
Astronomical Twilight 6:03 AM EST 6:56 PM EST
Moon 4:54 PM EST (11/27) 6:41 AM EST (11/27)
Length of Visible Light 10h 44m
Length of Day
9h 46m
Waxing Gibbous, 99% of the Moon is Illuminated
Nov 27
Waxing Gibbous
Nov 28
Full
Dec 6
Last Quarter
Dec 13
New
Dec 20
First Quarter

Hourly Weather History & Observations

Time (EST) Temp. Windchill Dew Point Humidity Pressure Visibility Wind Dir Wind Speed Gust Speed Precip Events Conditions
12:53 AM 39.9 °F 33.9 °F 36.0 °F 86% 30.25 in 10.0 mi North 9.2 mph - 0.02 in Rain Light Rain
1:41 AM 39.2 °F 33.0 °F 35.6 °F 87% 30.23 in 8.0 mi North 9.2 mph - 0.01 in Rain Light Rain
1:53 AM 37.9 °F 32.7 °F 35.1 °F 89% 30.24 in 9.0 mi North 6.9 mph - 0.01 in Rain Light Rain
2:10 AM 37.4 °F 30.8 °F 35.6 °F 93% 30.24 in 9.0 mi North 9.2 mph - 0.00 in Rain Light Rain
2:49 AM 37.4 °F 33.8 °F 35.6 °F 93% 30.25 in 8.0 mi NNE 4.6 mph - 0.00 in   Overcast
2:53 AM 37.9 °F 32.7 °F 35.1 °F 89% 30.25 in 8.0 mi NNE 6.9 mph - 0.00 in   Overcast
3:34 AM 37.4 °F 32.1 °F 35.6 °F 93% 30.26 in 8.0 mi North 6.9 mph - N/A   Overcast
3:53 AM 37.9 °F 32.1 °F 35.1 °F 89% 30.27 in 7.0 mi North 8.1 mph - N/A   Overcast
4:53 AM 37.0 °F 32.4 °F 35.1 °F 93% 30.27 in 6.0 mi North 5.8 mph - N/A   Overcast
5:53 AM 36.0 °F 30.3 °F 33.1 °F 89% 30.29 in 7.0 mi NNW 6.9 mph - N/A   Overcast
6:07 AM 35.6 °F 30.7 °F 33.8 °F 93% 30.28 in 8.0 mi NNW 5.8 mph - N/A   Overcast
6:53 AM 34.0 °F 25.5 °F 32.0 °F 92% 30.31 in 8.0 mi North 11.5 mph - N/A   Overcast
7:53 AM 34.0 °F 28.8 °F 32.0 °F 92% 30.33 in 7.0 mi North 5.8 mph - N/A   Overcast
8:53 AM 34.0 °F 29.8 °F 30.9 °F 89% 30.35 in 7.0 mi NNW 4.6 mph - N/A   Mostly Cloudy
9:01 AM 33.8 °F 28.6 °F 30.2 °F 87% 30.34 in 7.0 mi North 5.8 mph - N/A   Scattered Clouds
9:40 AM 37.4 °F 30.8 °F 30.2 °F 75% 30.36 in 9.0 mi NE 9.2 mph - N/A   Mostly Cloudy
9:53 AM 37.0 °F 31.0 °F 30.9 °F 79% 30.37 in 10.0 mi NNE 8.1 mph - N/A   Mostly Cloudy
10:35 AM 37.4 °F 32.1 °F 28.4 °F 70% 30.37 in 10.0 mi NNE 6.9 mph - N/A   Partly Cloudy
10:53 AM 39.0 °F 34.0 °F 30.0 °F 70% 30.38 in 10.0 mi Variable 6.9 mph - N/A   Clear
11:53 AM 42.1 °F 39.2 °F 28.9 °F 60% 30.37 in 10.0 mi NE 4.6 mph - N/A   Clear
12:53 PM 42.1 °F 39.2 °F 28.9 °F 60% 30.34 in 10.0 mi ENE 4.6 mph - N/A   Scattered Clouds
1:53 PM 44.1 °F 39.5 °F 28.9 °F 55% 30.33 in 10.0 mi North 8.1 mph - N/A   Clear
2:53 PM 44.1 °F 41.5 °F 28.9 °F 55% 30.30 in 10.0 mi NNE 4.6 mph - N/A   Scattered Clouds
3:53 PM 42.1 °F 39.2 °F 28.0 °F 58% 30.31 in 10.0 mi NNW 4.6 mph - N/A   Clear
4:53 PM 42.1 °F 39.2 °F 27.0 °F 55% 30.32 in 10.0 mi NW 4.6 mph - N/A   Clear
5:53 PM 39.0 °F - 27.0 °F 62% 30.34 in 10.0 mi Calm Calm - N/A   Clear
6:53 PM 37.0 °F - 27.0 °F 67% 30.35 in 10.0 mi Calm Calm - N/A   Clear
7:53 PM 35.1 °F 30.1 °F 25.0 °F 67% 30.36 in 10.0 mi NNW 5.8 mph - N/A   Clear
8:53 PM 34.0 °F - 26.1 °F 73% 30.36 in 10.0 mi Calm Calm - N/A   Clear
9:53 PM 30.0 °F - 25.0 °F 82% 30.35 in 10.0 mi Calm Calm - N/A   Clear
10:53 PM 30.9 °F - 26.1 °F 82% 30.35 in 10.0 mi Calm Calm - N/A   Clear
11:53 PM 30.0 °F - 25.0 °F 82% 30.35 in 9.0 mi Calm Calm - N/A   Clear